Weather History for KMQY - November, 2012

Change the Weather History Date:

Saturday, November 10, 2012

  Actual Average Record
Temperature  
Mean Temperature 54 °F -  
Max Temperature 72 °F 57 °F 80 °F (2002)
Min Temperature 37 °F 42 °F 26 °F (2011)
Degree Days  
Heating Degree Days 10    
Growing Degree Days 4 (Base 50)    
Moisture  
Dew Point 42 °F    
Average Humidity 63    
Maximum Humidity 97    
Minimum Humidity 36    
Precipitation  
Precipitation 0.00 in - - ()
Sea Level Pressure  
Sea Level Pressure 30.24 in    
Wind  
Wind Speed 4 mph (South)    
Max Wind Speed 12 mph    
Max Gust Speed -    
Visibility 10 miles    
Events      
Averages and records for this station are not official NWS values.
T = Trace of Precipitation, MM = Missing Value Source: NWS Daily Summary

Daily Weather History Graph

Daily Weather History Graph

Search for Another Location

Airport or City:

Trip Planner

Search our weather history database for the weather conditions in past years. The results will help you decide how hot, cold, wet, or windy it might be!

Date:

Astronomy

Nov. 10, 2012 Rise Set
Actual Time 6:18 AM CST 4:41 PM CST
Civil Twilight 5:50 AM CST 5:08 PM CST
Nautical Twilight 5:20 AM CST 5:39 PM CST
Astronomical Twilight 4:50 AM CST 6:09 PM CST
Moon 2:28 AM CST (11/10) 2:22 PM CST (11/10)
Length of Visible Light 11h 17m
Length of Day
10h 23m
Waning Crescent, 14% of the Moon is Illuminated
Nov 10
Waning Crescent
Nov 13
New
Nov 20
First Quarter
Nov 28
Full
Dec 6
Last Quarter

Hourly Weather History & Observations

Time (CST) Temp. Windchill Dew Point Humidity Pressure Visibility Wind Dir Wind Speed Gust Speed Precip Events Conditions
12:56 AM 45.9 °F 42.9 °F 39.9 °F 80% 30.21 in 10.0 mi South 5.8 mph - N/A   Clear
1:56 AM 41.9 °F - 37.9 °F 86% 30.22 in 10.0 mi Calm Calm - N/A   Clear
2:56 AM 41.9 °F - 37.9 °F 86% 30.22 in 10.0 mi Calm Calm - N/A   Clear
3:56 AM 39.9 °F - 36.9 °F 89% 30.24 in 10.0 mi Calm Calm - N/A   Clear
4:56 AM 38.8 °F 36.5 °F 37.9 °F 97% 30.26 in 10.0 mi South 3.5 mph - N/A   Clear
5:56 AM 37.9 °F - 36.0 °F 93% 30.28 in 10.0 mi Calm Calm - N/A   Clear
6:56 AM 37.9 °F - 36.9 °F 96% 30.30 in 10.0 mi Calm Calm - N/A   Clear
7:56 AM 50.9 °F - 43.0 °F 74% 30.31 in 10.0 mi South 4.6 mph - N/A   Clear
8:56 AM 57.9 °F - 43.9 °F 60% 30.31 in 10.0 mi South 5.8 mph - N/A   Clear
9:56 AM 63.9 °F - 45.0 °F 50% 30.30 in 10.0 mi South 11.5 mph - N/A   Clear
10:56 AM 66.9 °F - 46.9 °F 49% 30.29 in 10.0 mi South 9.2 mph - N/A   Clear
11:56 AM 70.0 °F - 47.8 °F 45% 30.25 in 10.0 mi South 10.4 mph - N/A   Clear
12:56 PM 70.9 °F - 45.9 °F 41% 30.22 in 10.0 mi SW 11.5 mph - N/A   Clear
1:56 PM 72.0 °F - 46.9 °F 41% 30.20 in 10.0 mi South 9.2 mph - N/A   Clear
2:56 PM 72.0 °F - 43.9 °F 36% 30.19 in 10.0 mi South 10.4 mph - N/A   Clear
3:56 PM 70.0 °F - 45.0 °F 41% 30.19 in 10.0 mi South 10.4 mph - N/A   Clear
4:56 PM 64.9 °F - 45.0 °F 48% 30.20 in 10.0 mi South 5.8 mph - N/A   Clear
5:56 PM 59.0 °F - 43.9 °F 57% 30.22 in 10.0 mi Calm Calm - N/A   Clear
6:56 PM 57.9 °F - 41.9 °F 55% 30.23 in 10.0 mi South 4.6 mph - N/A   Clear
7:56 PM 55.9 °F - 41.0 °F 57% 30.23 in 10.0 mi Calm Calm - N/A   Clear
8:56 PM 55.9 °F - 39.9 °F 55% 30.25 in 10.0 mi South 4.6 mph - N/A   Clear
10:56 PM 54.0 °F - 38.8 °F 57% 30.24 in 10.0 mi Calm Calm - N/A   Clear
11:56 PM 52.0 °F - 38.8 °F 61% 30.24 in 10.0 mi South 5.8 mph - N/A   Clear